sat.trackr.live / text

‹ back to catalog

STARLINK-1992

NORAD 47632 · 2021-012N

PAYLOAD ACTIVE UNKNOWN

§ Identity

Operator
Country
US
Launch date
2021-02-16
Launch site
AFETR
Launch vehicle
Mass (kg)
RCS (m²)

Purposes: comms

External: N2YO · Heavens-Above · Gunter

§ Orbital elements

Epoch: 2026-09-20T03:38:37.538304Z

Period
94.01 min
Inclination
53.1588°
Eccentricity
0.0001119
Mean motion
15.31718196 rev/d
Perigee alt
469.9 km
Apogee alt
471.5 km
Semi-major
6,848.8 km
B*
-1.5589e-6
RAAN
147.7098°
Arg perigee
84.9597°
Mean anomaly
275.1532°
Rev number
31,115

§ Raw data

STARLINK-19921 47632U 21012N   26263.15182336 -.00000414  00000+0 -15589-5 0  99992 47632  53.1588 147.7098 0001119  84.9597 275.1532 15.31718196311152

JSON: /api/v1/satellites/47632 · /tle

For live sub-satellite position, see the globe view (requires WebGL).

§ Visibility from observer

Set your observer location to see the next 7 days of passes ≥ 10°. The values pass through the URL so the page stays shareable.

No JS? Fill the form by hand. The geolocation button needs JavaScript.